Easton, MD

9:22 PM EDT on September 25, 2016 (GMT -0400)
Easton / Newnam

Weather History for KESN - September, 2012

Change the Weather History Date:

Friday, September 7, 2012

  Actual Average Record
Temperature  
Mean Temperature 75 °F -  
Max Temperature 86 °F 83 °F 96 °F (1954)
Min Temperature 64 °F 59 °F 45 °F (1976)
Cooling Degree Days 10    
Growing Degree Days 25 (Base 50)    
Moisture  
Dew Point 68 °F    
Average Humidity 90    
Maximum Humidity 100    
Minimum Humidity 51    
Precipitation  
Precipitation 0.00 in - - ()
Sea Level Pressure  
Sea Level Pressure 29.95 in    
Wind  
Wind Speed 2 mph (SSW)    
Max Wind Speed 10 mph    
Max Gust Speed -    
Visibility 9 miles    
Events      
Averages and records for this station are not official NWS values.
T = Trace of Precipitation, MM = Missing Value Source: NWS Daily Summary

Daily Weather History Graph

Daily Weather History Graph

Search for Another Location

Airport or City:

Trip Planner

Search our weather history database for the weather conditions in past years. The results will help you decide how hot, cold, wet, or windy it might be!

Date:

Astronomy

Sep. 07, 2012 Rise Set
Actual Time 6:39 AM EDT 7:24 PM EDT
Civil Twilight 6:12 AM EDT 7:51 PM EDT
Nautical Twilight 5:40 AM EDT 8:23 PM EDT
Astronomical Twilight 5:07 AM EDT 8:56 PM EDT
Moon 11:22 PM EDT (9/7) 1:24 PM EDT (9/7)
Length of Visible Light 13h 39m
Length of Day
12h 45m
Waning Gibbous, 58% of the Moon is Illuminated
Sep 7
Waning Gibbous
Sep 8
Last Quarter
Sep 15
New
Sep 22
First Quarter
Sep 29
Full

Hourly Weather History & Observations

Time (EDT) Temp. Heat Index Dew Point Humidity Pressure Visibility Wind Dir Wind Speed Gust Speed Precip Events Conditions
12:10 AM 66.2 °F - 66.2 °F 100% 29.97 in 7.0 mi Calm Calm - N/A   Clear
12:31 AM 65.7 °F - 65.7 °F 100% 29.97 in 10.0 mi Calm Calm - N/A   Clear
12:52 AM 65.8 °F - 65.8 °F 100% 29.97 in 10.0 mi Calm Calm - N/A   Clear
1:14 AM 65.5 °F - 65.5 °F 100% 29.97 in 10.0 mi Calm Calm - N/A   Clear
1:35 AM 65.8 °F - 65.8 °F 100% 29.96 in 7.0 mi Calm Calm - N/A   Clear
1:56 AM 64.9 °F - 64.9 °F 100% 29.96 in 7.0 mi Calm Calm - N/A   Clear
2:18 AM 64.6 °F - 64.6 °F 100% 29.96 in 10.0 mi Calm Calm - N/A   Clear
2:39 AM 64.9 °F - 64.9 °F 100% 29.95 in 7.0 mi NW 3.5 mph - N/A   Clear
3:00 AM 65.3 °F - 65.3 °F 100% 29.95 in 10.0 mi Calm Calm - N/A   Clear
3:22 AM 65.3 °F - 65.3 °F 100% 29.95 in 7.0 mi Calm Calm - N/A   Clear
3:43 AM 66.0 °F - 66.0 °F 100% 29.94 in 7.0 mi Calm Calm - N/A   Clear
4:04 AM 65.7 °F - 65.7 °F 100% 29.94 in 7.0 mi Calm Calm - N/A   Clear
4:25 AM 66.2 °F - 66.2 °F 100% 29.94 in 7.0 mi Calm Calm - N/A   Clear
4:47 AM 65.8 °F - 65.8 °F 100% 29.94 in 10.0 mi Calm Calm - N/A   Clear
5:08 AM 65.3 °F - 65.3 °F 100% 29.94 in 5.0 mi Calm Calm - N/A   Clear
5:29 AM 64.4 °F - 64.4 °F 100% 29.94 in 10.0 mi Calm Calm - N/A   Clear
5:51 AM 65.1 °F - 65.1 °F 100% 29.95 in 10.0 mi Calm Calm - N/A   Clear
5:53 AM 64.4 °F - 64.4 °F 100% 29.95 in 6.0 mi Calm Calm - N/A   Clear
6:12 AM 65.3 °F - 65.3 °F 100% 29.96 in 10.0 mi Calm Calm - N/A   Clear
6:13 AM 65.3 °F - 65.3 °F 100% 29.96 in 10.0 mi Calm Calm - N/A   Clear
6:53 AM 66.2 °F - 66.2 °F 100% 29.97 in 6.0 mi Calm Calm - N/A   Clear
7:53 AM 71.6 °F - 71.6 °F 100% 29.98 in 7.0 mi SSE 3.5 mph - N/A   Clear
8:53 AM 75.2 °F - 73.4 °F 94% 29.93 in 10.0 mi South 4.6 mph - N/A   Clear
9:56 AM 77.0 °F - 71.6 °F 83% 29.99 in 10.0 mi SSW 5.8 mph - N/A   Clear
10:52 AM 80.6 °F 84.6 °F 71.6 °F 74% 29.99 in 10.0 mi SSW 8.1 mph - N/A   Clear
11:58 AM 84.2 °F 90.9 °F 73.4 °F 70% 29.99 in 10.0 mi SSW 8.1 mph - N/A   Scattered Clouds
12:50 PM 84.2 °F 89.6 °F 71.6 °F 66% 29.98 in 10.0 mi WSW 8.1 mph - N/A   Clear
1:50 PM 86.0 °F 91.8 °F 71.6 °F 62% 29.97 in 10.0 mi SW 9.2 mph - N/A   Clear
2:55 PM 86.0 °F 88.2 °F 66.2 °F 51% 29.95 in 10.0 mi SW 10.4 mph - N/A   Clear
4:51 PM 86.0 °F 89.4 °F 68.0 °F 55% 29.94 in 10.0 mi South 10.4 mph - N/A   Clear
5:50 PM 84.2 °F 86.6 °F 66.2 °F 55% 29.93 in 10.0 mi SSW 8.1 mph - N/A   Clear
6:50 PM 82.4 °F 85.4 °F 68.0 °F 62% 29.93 in 10.0 mi SSW 5.8 mph - N/A   Clear
7:50 PM 75.2 °F - 68.0 °F 78% 29.93 in 10.0 mi SSW 3.5 mph - N/A   Clear
8:52 PM 73.4 °F - 69.8 °F 88% 29.94 in 10.0 mi SSE 5.8 mph - N/A   Clear
10:30 PM 73.2 °F - 72.0 °F 96% 29.91 in 10.0 mi South 8.1 mph - N/A   Clear
10:51 PM 73.4 °F - 73.4 °F 100% 29.91 in 10.0 mi South 6.9 mph - N/A   Clear
11:13 PM 72.0 °F - 72.0 °F 100% 29.89 in 10.0 mi South 5.8 mph - N/A   Clear
11:34 PM 71.6 °F - 71.6 °F 100% 29.88 in 10.0 mi SSE 5.8 mph - N/A   Clear